STARLINK-1723, 46333

Orbit data source: Space-Track

STARLINK-1723, 46333 is a payload satellite owned by SpaceX/Seattle (US) in LEO that was launched on Thu, 03 Sep 2020 UTC via an FALCON 9 launch vehicle from the Air Force Eastern Test Range (AFETR). Payload-class satellites include a variety of spacecraft equipped with specific instruments for various scientific and technological missions. These include communications satellites like Starlink; space stations such as the ISS; scientific satellites like the Hubble; Earth observation satellites from companies like Planet Labs, Umbra, and HawkEye 360; GPS; miniature CubeSats for education and research; and military/defense satellites.

Loading next visibility...
Identifier
46333, 2020-062J
Orbit
LEO
Last TLE update
2 hours ago
Origin
Manufacturer
SpaceX/Seattle
Mission
Operational Commercial Communications
Bus & Motor
STARLINK, Unknown motor
Mass
260 kg wet, ~248 kg dry
Launch date (UTC)
2020-09-03 (5 years ago)
Launch vehicle
FALCON 9
Launch site
Air Force Eastern Test Range (AFETR)
Object type
Payload
Rocket body
Debris
Shape & HBR
Box + 1 Pan, 8.86 m
Radar Cross Section
13.562 m², Large (>1 m²)

Expand to show TLE details & history

TLE from 2 hours ago
0 STARLINK-1723
1 46333U 20062J   25186.85852398  .00000556  00000-0  56202-4 0  9994
2 46333  53.0559  44.6840 0001421  91.4492 268.6660 15.06387907267286
Epoch: 2025-07-05T20:36Z
TLE epoch observation values (Epoch: 2025-07-05T20:36:16.471Z)
Latitude
-0.00002°
Longitude
171.52482°
Altitude
548.151 km
Speed
7.589 km/s
True Right ascension
02h 58m 44s
True Declination
0° 00' 00"
Sunlit
Object was in daylight at epoch
Visualization orbit readout
Latitude
-8.74634°
Longitude
-2.3235°
Altitude
549.831 km
Speed
7.588 km/s
Apparent Right ascension
18h 13m 51s
Apparent Declination
-37° 43' 26"
Sunlit
Object is in full shadow
Visualization observer readout
Local Sidereal Time
10:58:42
Azimuth
112.216° ESE
Elevation
-36.014°
Doppler factor
1
Orbital elements
Apogee altitude
548.503 km
Perigee altitude
546.535 km
Semi-major axis
6,925.656 km
Eccentricity
0.00014
Inclination
53.0559°
RAAN
44.684°
Arg. of periapsis
91.4492°
True anomaly
Unknown
Mean anomaly
268.666°
Eccentric anomaly
Unknown
Mean motion
3.76575 °/min
Orbital period
95.6 mins
BSTAR
0.000056202
Loading maneuver chart data...
Loading SW <> Apogee altitude chart data...
Loading historical data...
Loading historical data...
Loading historical data...
Loading historical data...
Loading historical data...
Loading historical data...
Loading historical data...

STARLINK-1723 Visibility forecast

Observer location: undefined°, undefined°

Span
Click to sort rows by Start time (UTC) header in descending order
Start Az.
Max El. time (UTC)
Max El. Az.
Max El.
End time (UTC)
End Az.
7 mins2025-07-06 00:17:25.034Z310.966° NW2025-07-06 00:20:25.034Z324.189° NNW43.515°2025-07-06 00:24:25.034Z128.826° SE
6 mins2025-07-06 17:30:25.034Z241.293° WSW2025-07-06 17:33:25.034Z7.803° NNE41.665°2025-07-06 17:36:25.034Z45.37° ENE
4 mins2025-07-06 19:11:25.034Z311.032° NW2025-07-06 19:13:25.034Z347.788° N17.682°2025-07-06 19:15:25.034Z20.462° NNE
5 mins2025-07-06 22:32:25.034Z340.895° N2025-07-06 22:34:25.034Z18.538° NNE21.894°2025-07-06 22:37:25.034Z73.699° E
|